"read_dt","SO2 (ppb)","flags","PMT voltage (V)","lamp voltage (V)","lamp intensity (Hz)","internal temp (C)","react chamber temp (C)","sample flow (l/min)","pres (mmHg)","SO2 bkg (ppb)","SO2 coefficient"
2015-10-01 00:00:00,1817E-3,5C000400,-0724,0824,12141,030.6,045.5,0.251,754.8,01.17,0.508
2015-10-01 00:01:00,1811E-3,5C000400,-0724,0824,12237,030.4,045.5,0.251,754.8,01.17,0.508
2015-10-01 00:02:00,1902E-3,5C000400,-0724,0824,12060,030.3,045.5,0.251,754.9,01.17,0.508
2015-10-01 00:03:00,1922E-3,5C000400,-0724,0824,12232,030.1,045.5,0.252,755.0,01.17,0.508
2015-10-01 00:04:00,1946E-3,5C000400,-0724,0824,12202,030.0,045.5,0.252,755.0,01.17,0.508
2015-10-01 00:05:00,1943E-3,5C000400,-0724,0825,12355,029.9,045.5,0.252,755.2,01.16,0.508
2015-10-01 00:06:00,1829E-3,5C000400,-0724,0824,12260,029.8,045.5,0.252,755.2,01.16,0.508
2015-10-01 00:07:00,1880E-3,5C000400,-0724,0825,12372,029.9,045.5,0.252,755.0,01.17,0.508
2015-10-01 00:08:00,1747E-3,5C000400,-0724,0824,12304,029.9,045.5,0.252,755.1,01.16,0.508
2015-10-01 00:09:00,1878E-3,5C000400,-0724,0825,12345,030.0,045.5,0.253,755.2,01.16,0.508
2015-10-01 00:10:00,1710E-3,5C000400,-0724,0824,12268,030.0,045.5,0.252,755.2,01.16,0.508
2015-10-01 00:11:00,1833E-3,5C000400,-0724,0823,12322,030.0,045.5,0.253,755.2,01.16,0.508
2015-10-01 00:12:00,1828E-3,5C000400,-0724,0824,12224,030.1,045.5,0.252,755.1,01.16,0.508
2015-10-01 00:13:00,1779E-3,5C000400,-0724,0825,12257,030.1,045.5,0.253,755.0,01.17,0.508
2015-10-01 00:14:00,1931E-3,5C000400,-0724,0825,12289,030.1,045.5,0.252,755.3,01.16,0.508
2015-10-01 00:15:00,1902E-3,5C000400,-0724,0824,12275,030.2,045.5,0.252,755.1,01.16,0.508
2015-10-01 00:16:00,1810E-3,5C000400,-0724,0824,12146,030.2,045.5,0.253,755.2,01.16,0.508
2015-10-01 00:17:00,1871E-3,5C000400,-0724,0824,12105,030.2,045.5,0.252,755.1,01.16,0.508
2015-10-01 00:18:00,1894E-3,5C000400,-0724,0823,12226,030.2,045.5,0.253,755.0,01.17,0.508
2015-10-01 00:19:00,1849E-3,5C000400,-0724,0824,12112,030.3,045.5,0.253,755.1,01.16,0.508
2015-10-01 00:20:00,1797E-3,5C000400,-0724,0824,12278,030.3,045.5,0.252,755.3,01.16,0.508
2015-10-01 00:21:00,1949E-3,5C000400,-0724,0823,12218,030.3,045.5,0.253,755.2,01.16,0.508
2015-10-01 00:22:00,1917E-3,5C000400,-0724,0824,12341,030.3,045.5,0.252,755.0,01.16,0.508
2015-10-01 00:23:00,1981E-3,5C000400,-0724,0824,12150,030.4,045.5,0.252,755.2,01.17,0.508
2015-10-01 00:24:00,1882E-3,5C000400,-0724,0824,12277,030.4,045.5,0.253,755.2,01.16,0.508
2015-10-01 00:25:00,1833E-3,5C000400,-0724,0824,12213,030.4,045.5,0.252,755.2,01.16,0.508
2015-10-01 00:26:00,1871E-3,5C000400,-0724,0824,12220,030.4,045.5,0.252,755.1,01.16,0.508
2015-10-01 00:27:00,2046E-3,5C000400,-0724,0824,12385,030.4,045.5,0.252,755.2,01.16,0.508
2015-10-01 00:28:00,1980E-3,5C000400,-0724,0824,12224,030.5,045.5,0.252,755.1,01.16,0.508
2015-10-01 00:29:00,1918E-3,5C000400,-0724,0824,12271,030.5,045.5,0.252,755.0,01.17,0.508
2015-10-01 00:30:00,2001E-3,5C000400,-0724,0824,12145,030.5,045.5,0.252,755.0,01.17,0.508
2015-10-01 00:31:00,1737E-3,5C000400,-0724,0824,12251,030.5,045.5,0.252,755.3,01.16,0.508
2015-10-01 00:32:00,1916E-3,5C000400,-0724,0824,12140,030.5,045.5,0.252,755.1,01.16,0.508
2015-10-01 00:33:00,1800E-3,5C000400,-0724,0824,12008,030.5,045.5,0.252,755.1,01.16,0.508
2015-10-01 00:34:00,2000E-3,5C000400,-0724,0825,12372,030.6,045.5,0.252,755.2,01.16,0.508
2015-10-01 00:35:00,1818E-3,5C000400,-0724,0825,12291,030.6,045.5,0.252,755.2,01.16,0.508
2015-10-01 00:36:00,1919E-3,5C000400,-0724,0824,12256,030.6,045.5,0.252,755.1,01.16,0.508
2015-10-01 00:37:00,1969E-3,5C000400,-0724,0824,12321,030.6,045.5,0.252,755.1,01.16,0.508
2015-10-01 00:38:00,2023E-3,5C000400,-0724,0824,12250,030.6,045.5,0.252,755.2,01.16,0.508
2015-10-01 00:39:00,1835E-3,5C000400,-0724,0824,12211,030.6,045.5,0.252,755.1,01.16,0.508
2015-10-01 00:40:00,1941E-3,5C000400,-0724,0825,12236,030.6,045.5,0.252,755.1,01.16,0.508
2015-10-01 00:41:00,1814E-3,5C000400,-0724,0825,12247,030.6,045.5,0.252,755.3,01.16,0.508
2015-10-01 00:42:00,1871E-3,5C000400,-0724,0824,12332,030.7,045.5,0.252,755.2,01.16,0.508
2015-10-01 00:43:00,1866E-3,5C000400,-0724,0825,12243,030.6,045.5,0.252,755.1,01.16,0.508
2015-10-01 00:44:00,1872E-3,5C000400,-0724,0824,12105,030.7,045.5,0.251,755.1,01.16,0.508
2015-10-01 00:45:00,1965E-3,5C000400,-0724,0825,12162,030.7,045.5,0.252,755.1,01.16,0.508
2015-10-01 00:46:00,1957E-3,5C000400,-0724,0824,12264,030.7,045.5,0.251,755.0,01.17,0.508
2015-10-01 00:47:00,1968E-3,5C000400,-0724,0825,12267,030.7,045.5,0.252,755.2,01.16,0.508
2015-10-01 00:48:00,1956E-3,5C000400,-0724,0824,12309,030.7,045.5,0.251,755.2,01.16,0.508
2015-10-01 00:49:00,1863E-3,5C000400,-0724,0825,12288,030.7,045.5,0.252,755.2,01.16,0.508
2015-10-01 00:50:00,1854E-3,5C000400,-0724,0825,12244,030.7,045.5,0.252,755.0,01.17,0.508
2015-10-01 00:51:00,1916E-3,5C000400,-0724,0825,12295,030.7,045.5,0.252,755.2,01.16,0.508
2015-10-01 00:52:00,1873E-3,5C000400,-0724,0825,12307,030.7,045.5,0.251,755.2,01.16,0.508
2015-10-01 00:53:00,1873E-3,5C000400,-0724,0824,12230,030.8,045.5,0.252,755.0,01.17,0.508
2015-10-01 00:54:00,1845E-3,5C000400,-0724,0825,12287,030.8,045.5,0.251,755.3,01.16,0.508
2015-10-01 00:55:00,1911E-3,5C000400,-0724,0824,12309,030.8,045.5,0.252,755.2,01.16,0.508
2015-10-01 00:56:00,1890E-3,5C000400,-0724,0824,12132,030.8,045.5,0.252,755.3,01.16,0.508
2015-10-01 00:57:00,1861E-3,5C000400,-0724,0825,12204,030.8,045.5,0.252,755.3,01.16,0.508
2015-10-01 00:58:00,1964E-3,5C000400,-0724,0825,12209,030.8,045.5,0.252,755.3,01.16,0.508
2015-10-01 00:59:00,1851E-3,5C000400,-0724,0824,12371,030.8,045.5,0.251,754.9,01.17,0.508
2015-10-01 01:00:00,1860E-3,5C000400,-0724,0824,12265,030.8,045.5,0.252,755.0,01.17,0.508
2015-10-01 01:01:00,1768E-3,5C000400,-0724,0825,12159,030.8,045.5,0.252,755.1,01.16,0.508
2015-10-01 01:02:00,1900E-3,5C000400,-0724,0824,12255,030.8,045.5,0.251,755.0,01.17,0.508
2015-10-01 01:03:00,1745E-3,5C000400,-0724,0824,12211,030.8,045.5,0.252,755.1,01.16,0.508
2015-10-01 01:04:00,1904E-3,5C000400,-0724,0825,12150,030.8,045.5,0.251,754.9,01.17,0.508
2015-10-01 01:05:00,1955E-3,5C000400,-0724,0825,12248,030.8,045.5,0.252,755.1,01.16,0.508
2015-10-01 01:06:00,1844E-3,5C000400,-0724,0825,12154,030.9,045.5,0.251,755.1,01.16,0.508
2015-10-01 01:07:00,1938E-3,5C000400,-0724,0824,12157,030.9,045.5,0.251,755.2,01.16,0.508
2015-10-01 01:08:00,1968E-3,5C000400,-0724,0825,12253,030.9,045.5,0.252,755.3,01.16,0.508
2015-10-01 01:09:00,1888E-3,5C000400,-0724,0825,12124,030.9,045.5,0.251,755.1,01.16,0.508
2015-10-01 01:10:00,1923E-3,5C000400,-0724,0825,12248,030.9,045.5,0.252,755.2,01.16,0.508
2015-10-01 01:11:00,2012E-3,5C000400,-0724,0825,12271,030.9,045.5,0.251,755.1,01.16,0.508
2015-10-01 01:12:00,1891E-3,5C000400,-0724,0825,12019,030.9,045.5,0.251,755.3,01.16,0.508
2015-10-01 01:13:00,1897E-3,5C000400,-0724,0825,12320,030.9,045.5,0.251,755.1,01.16,0.508
2015-10-01 01:14:00,2018E-3,5C000400,-0724,0825,12164,030.9,045.5,0.251,755.2,01.16,0.508
2015-10-01 01:15:00,1868E-3,5C000400,-0724,0824,12364,030.9,045.5,0.252,755.2,01.16,0.508
2015-10-01 01:16:00,1770E-3,5C000400,-0724,0825,12178,030.9,045.5,0.251,755.0,01.17,0.508
2015-10-01 01:17:00,2003E-3,5C000400,-0724,0825,12262,030.9,045.5,0.251,755.0,01.17,0.508
2015-10-01 01:18:00,1921E-3,5C000400,-0724,0824,12230,030.9,045.5,0.251,755.2,01.16,0.508
2015-10-01 01:19:00,1891E-3,5C000400,-0724,0825,12331,030.9,045.5,0.251,754.9,01.17,0.508
2015-10-01 01:20:00,1834E-3,5C000400,-0724,0825,12081,030.9,045.5,0.251,755.0,01.17,0.508
2015-10-01 01:21:00,1780E-3,5C000400,-0724,0825,12286,030.9,045.5,0.251,755.0,01.17,0.508
2015-10-01 01:22:00,1851E-3,5C000400,-0724,0825,12320,030.9,045.5,0.251,755.0,01.17,0.508
2015-10-01 01:23:00,1882E-3,5C000400,-0724,0825,12225,030.9,045.5,0.251,755.2,01.16,0.508
2015-10-01 01:24:00,1993E-3,5C000400,-0724,0824,12196,030.9,045.5,0.251,755.0,01.17,0.508
2015-10-01 01:25:00,1973E-3,5C000400,-0724,0825,12311,030.9,045.5,0.251,755.0,01.17,0.508
2015-10-01 01:26:00,1917E-3,5C000400,-0724,0825,12291,030.9,045.5,0.251,755.1,01.16,0.508
2015-10-01 01:27:00,1973E-3,5C000400,-0724,0825,12042,030.9,045.5,0.251,755.0,01.17,0.508
2015-10-01 01:28:00,1913E-3,5C000400,-0724,0825,12251,030.9,045.5,0.251,755.0,01.17,0.508
2015-10-01 01:29:00,1973E-3,5C000400,-0724,0824,12239,030.9,045.5,0.251,755.1,01.16,0.508
2015-10-01 01:30:00,1823E-3,5C000400,-0724,0825,12193,030.8,045.5,0.251,755.2,01.16,0.508
2015-10-01 01:31:00,1826E-3,5C000400,-0724,0825,12191,030.6,045.5,0.251,755.1,01.16,0.508
2015-10-01 01:32:00,1760E-3,5C000400,-0724,0825,12216,030.4,045.5,0.251,755.1,01.16,0.508
2015-10-01 01:33:00,1862E-3,5C000400,-0724,0825,12281,030.2,045.5,0.251,755.2,01.16,0.508
2015-10-01 01:34:00,1956E-3,5C000400,-0724,0824,12216,030.0,045.5,0.251,755.2,01.16,0.508
2015-10-01 01:35:00,1835E-3,5C000400,-0724,0823,12018,029.9,045.5,0.251,755.2,01.16,0.508
2015-10-01 01:36:00,1804E-3,5C000400,-0724,0824,12317,029.7,045.5,0.252,755.2,01.16,0.508
2015-10-01 01:37:00,1899E-3,5C000400,-0724,0823,12130,029.7,045.5,0.252,755.1,01.16,0.508
2015-10-01 01:38:00,1867E-3,5C000400,-0724,0824,12323,029.8,045.5,0.252,755.1,01.16,0.508
2015-10-01 01:39:00,1844E-3,5C000400,-0724,0824,12251,029.8,045.5,0.252,754.9,01.17,0.508
2015-10-01 01:40:00,1871E-3,5C000400,-0724,0824,12348,029.9,045.5,0.253,755.2,01.16,0.508
2015-10-01 01:41:00,1883E-3,5C000400,-0724,0824,12263,029.9,045.5,0.252,755.0,01.17,0.508
2015-10-01 01:42:00,1880E-3,5C000400,-0724,0824,12130,029.9,045.5,0.253,755.2,01.16,0.508
2015-10-01 01:43:00,1976E-3,5C000400,-0724,0824,12161,030.0,045.5,0.253,755.2,01.16,0.508
2015-10-01 01:44:00,1864E-3,5C000400,-0724,0824,12129,030.0,045.5,0.253,755.1,01.16,0.508
2015-10-01 01:45:00,2047E-3,5C000400,-0724,0824,11934,030.1,045.5,0.253,754.8,01.17,0.508
2015-10-01 01:46:00,1974E-3,5C000400,-0724,0825,12220,030.1,045.5,0.252,755.0,01.17,0.508
2015-10-01 01:47:00,1845E-3,5C000400,-0724,0824,12233,030.1,045.5,0.253,755.0,01.17,0.508
2015-10-01 01:48:00,1853E-3,5C000400,-0724,0824,12295,030.1,045.5,0.253,755.0,01.17,0.508
2015-10-01 01:49:00,1765E-3,5C000400,-0724,0824,12328,030.2,045.5,0.252,755.1,01.16,0.508
2015-10-01 01:50:00,1984E-3,5C000400,-0724,0824,12300,030.2,045.5,0.253,755.1,01.16,0.508
2015-10-01 01:51:00,1922E-3,5C000400,-0724,0824,12296,030.2,045.5,0.253,755.1,01.16,0.508
2015-10-01 01:52:00,1908E-3,5C000400,-0724,0824,12299,030.2,045.5,0.252,755.2,01.16,0.508
2015-10-01 01:53:00,1784E-3,5C000400,-0724,0824,12253,030.3,045.5,0.252,755.2,01.16,0.508
2015-10-01 01:54:00,1938E-3,5C000400,-0724,0824,12154,030.3,045.5,0.253,755.2,01.16,0.508
2015-10-01 01:55:00,2067E-3,5C000400,-0724,0825,12256,030.3,045.5,0.252,755.3,01.16,0.508
2015-10-01 01:56:00,1687E-3,5C000400,-0724,0825,12251,030.3,045.5,0.253,755.2,01.16,0.508
2015-10-01 01:57:00,1973E-3,5C000400,-0724,0824,12194,030.3,045.5,0.253,755.1,01.16,0.508
2015-10-01 01:58:00,1963E-3,5C000400,-0724,0824,12169,030.4,045.5,0.253,755.1,01.16,0.508
2015-10-01 01:59:00,1877E-3,5C000400,-0724,0825,12220,030.4,045.5,0.253,755.2,01.16,0.508
2015-10-01 02:00:00,1912E-3,5C000400,-0724,0824,12368,030.4,045.5,0.252,755.2,01.16,0.508
2015-10-01 02:01:00,1863E-3,5C000400,-0724,0824,12093,030.4,045.5,0.253,755.2,01.16,0.508
2015-10-01 02:02:00,1830E-3,5C000400,-0724,0824,12112,030.4,045.5,0.252,755.2,01.16,0.508
2015-10-01 02:03:00,1733E-3,5C000400,-0724,0824,12103,030.4,045.5,0.252,755.2,01.16,0.508
2015-10-01 02:04:00,1923E-3,5C000400,-0724,0825,12225,030.5,045.5,0.252,755.0,01.17,0.508
2015-10-01 02:05:00,1931E-3,5C000400,-0724,0825,12193,030.5,045.5,0.252,755.3,01.16,0.508
2015-10-01 02:06:00,2052E-3,5C000400,-0724,0825,12141,030.5,045.5,0.252,754.9,01.17,0.508
2015-10-01 02:07:00,2024E-3,5C000400,-0724,0825,12310,030.5,045.5,0.252,755.3,01.16,0.508
2015-10-01 02:08:00,2014E-3,5C000400,-0724,0825,12134,030.6,045.5,0.252,755.4,01.16,0.508
2015-10-01 02:09:00,1871E-3,5C000400,-0724,0825,12337,030.6,045.5,0.251,755.3,01.16,0.508
2015-10-01 02:10:00,1940E-3,5C000400,-0724,0825,12247,030.6,045.5,0.252,755.3,01.16,0.508
2015-10-01 02:11:00,1996E-3,5C000400,-0724,0825,12247,030.6,045.5,0.252,755.3,01.16,0.508
2015-10-01 02:12:00,1933E-3,5C000400,-0724,0825,12177,030.6,045.5,0.252,755.3,01.16,0.508
2015-10-01 02:13:00,1929E-3,5C000400,-0724,0825,12279,030.6,045.5,0.252,755.2,01.16,0.508
2015-10-01 02:14:00,1978E-3,5C000400,-0724,0825,12307,030.6,045.5,0.252,755.4,01.16,0.508
2015-10-01 02:15:00,1819E-3,5C000400,-0724,0825,12149,030.6,045.5,0.252,755.5,01.16,0.508
2015-10-01 02:16:00,2029E-3,5C000400,-0724,0825,12223,030.6,045.5,0.252,755.5,01.16,0.508
2015-10-01 02:17:00,1861E-3,5C000400,-0724,0825,12179,030.6,045.5,0.251,755.3,01.16,0.508
2015-10-01 02:18:00,1800E-3,5C000400,-0724,0825,12294,030.6,045.5,0.252,755.3,01.16,0.508
2015-10-01 02:19:00,2039E-3,5C000400,-0724,0825,12269,030.7,045.5,0.251,755.4,01.16,0.508
2015-10-01 02:20:00,1967E-3,5C000400,-0724,0824,12148,030.7,045.5,0.252,755.3,01.16,0.508
2015-10-01 02:21:00,1824E-3,5C000400,-0724,0825,12276,030.7,045.5,0.251,755.2,01.16,0.508
2015-10-01 02:22:00,1979E-3,5C000400,-0724,0824,12331,030.7,045.5,0.252,755.5,01.16,0.508
2015-10-01 02:23:00,1818E-3,5C000400,-0724,0825,12345,030.7,045.5,0.251,755.3,01.16,0.508
2015-10-01 02:24:00,1993E-3,5C000400,-0724,0825,12175,030.7,045.5,0.252,755.3,01.16,0.508
2015-10-01 02:25:00,1886E-3,5C000400,-0724,0824,12193,030.7,045.5,0.251,755.5,01.16,0.508
2015-10-01 02:26:00,1844E-3,5C000400,-0724,0825,12184,030.7,045.5,0.252,755.4,01.16,0.508
2015-10-01 02:27:00,1982E-3,5C000400,-0724,0824,12181,030.7,045.5,0.252,755.3,01.16,0.508
2015-10-01 02:28:00,1922E-3,5C000400,-0724,0824,12351,030.8,045.5,0.252,755.4,01.16,0.508
2015-10-01 02:29:00,2021E-3,5C000400,-0724,0825,12300,030.8,045.5,0.252,755.4,01.16,0.508
2015-10-01 02:30:00,1951E-3,5C000400,-0724,0824,12241,030.8,045.5,0.252,755.5,01.16,0.508
2015-10-01 02:31:00,1866E-3,5C000400,-0724,0825,12172,030.8,045.5,0.252,755.5,01.16,0.508
2015-10-01 02:32:00,1843E-3,5C000400,-0724,0825,12099,030.8,045.5,0.251,755.5,01.16,0.508
2015-10-01 02:33:00,1967E-3,5C000400,-0724,0825,12194,030.8,045.5,0.252,755.5,01.16,0.508
2015-10-01 02:34:00,1914E-3,5C000400,-0724,0826,12279,030.8,045.5,0.251,755.5,01.16,0.508
2015-10-01 02:35:00,1910E-3,5C000400,-0724,0825,12192,030.8,045.5,0.252,755.5,01.16,0.508
2015-10-01 02:36:00,1981E-3,5C000400,-0724,0824,12205,030.8,045.5,0.251,755.6,01.16,0.508
2015-10-01 02:37:00,1823E-3,5C000400,-0724,0825,12114,030.9,045.5,0.252,755.4,01.16,0.508
2015-10-01 02:38:00,1701E-3,5C000400,-0724,0825,12170,030.8,045.5,0.251,755.6,01.16,0.508
2015-10-01 02:39:00,1855E-3,5C000400,-0724,0824,12073,030.8,045.5,0.252,755.5,01.16,0.508
2015-10-01 02:40:00,1862E-3,5C000400,-0724,0824,12311,030.9,045.5,0.251,755.5,01.16,0.508
2015-10-01 02:41:00,1787E-3,5C000400,-0724,0825,12183,030.9,045.5,0.251,755.4,01.16,0.508
2015-10-01 02:42:00,1992E-3,5C000400,-0724,0825,12218,030.9,045.5,0.252,755.4,01.16,0.508
2015-10-01 02:43:00,1870E-3,5C000400,-0724,0826,12197,030.9,045.5,0.251,755.5,01.16,0.508
2015-10-01 02:44:00,1958E-3,5C000400,-0724,0824,12107,030.9,045.5,0.251,755.4,01.16,0.508
2015-10-01 02:45:00,1918E-3,5C000400,-0724,0826,12262,030.9,045.5,0.251,755.3,01.16,0.508
2015-10-01 02:46:00,2010E-3,5C000400,-0724,0825,12255,030.9,045.5,0.251,755.4,01.16,0.508
2015-10-01 02:47:00,1833E-3,5C000400,-0724,0824,12244,030.9,045.5,0.251,755.5,01.16,0.508
2015-10-01 02:48:00,1841E-3,5C000400,-0724,0825,12284,030.9,045.5,0.252,755.3,01.16,0.508
2015-10-01 02:49:00,1930E-3,5C000400,-0724,0825,12200,030.9,045.5,0.251,755.3,01.16,0.508
2015-10-01 02:50:00,1889E-3,5C000400,-0724,0825,12322,030.9,045.5,0.251,755.3,01.16,0.508
2015-10-01 02:51:00,1891E-3,5C000400,-0724,0825,12369,030.9,045.5,0.251,755.3,01.16,0.508
2015-10-01 02:52:00,1757E-3,5C000400,-0724,0825,12264,030.9,045.5,0.251,755.3,01.16,0.508
2015-10-01 02:53:00,1923E-3,5C000400,-0724,0825,12283,030.9,045.5,0.251,755.3,01.16,0.508
2015-10-01 02:54:00,1944E-3,5C000400,-0724,0826,12261,031.0,045.5,0.251,755.2,01.16,0.508
2015-10-01 02:55:00,1912E-3,5C000400,-0724,0826,12178,030.9,045.5,0.252,755.2,01.16,0.508
2015-10-01 02:56:00,1894E-3,5C000400,-0724,0825,12340,030.9,045.5,0.251,755.3,01.16,0.508
2015-10-01 02:57:00,1900E-3,5C000400,-0724,0825,12198,030.9,045.5,0.251,755.3,01.16,0.508
2015-10-01 02:58:00,1789E-3,5C000400,-0724,0825,12211,030.8,045.5,0.252,755.2,01.16,0.508
2015-10-01 02:59:00,1999E-3,5C000400,-0724,0825,12332,030.6,045.5,0.251,755.2,01.16,0.508
2015-10-01 03:00:00,1855E-3,5C000400,-0724,0824,12185,030.5,045.5,0.251,755.3,01.16,0.508
2015-10-01 03:01:00,1789E-3,5C000400,-0724,0825,12206,030.3,045.5,0.251,755.4,01.16,0.508
2015-10-01 03:02:00,1930E-3,5C000400,-0724,0825,12278,030.1,045.5,0.251,755.3,01.16,0.508
2015-10-01 03:03:00,1894E-3,5C000400,-0724,0825,12121,029.9,045.5,0.252,755.3,01.16,0.508
2015-10-01 03:04:00,2046E-3,5C000400,-0724,0824,12248,029.9,045.5,0.252,755.3,01.16,0.508
2015-10-01 03:05:00,1938E-3,5C000400,-0724,0824,12192,029.8,045.5,0.252,755.3,01.16,0.508
2015-10-01 03:06:00,1904E-3,5C000400,-0724,0824,12277,029.8,045.5,0.252,755.4,01.16,0.508
2015-10-01 03:07:00,1845E-3,5C000400,-0724,0824,12138,029.9,045.5,0.253,755.4,01.16,0.508
2015-10-01 03:08:00,1992E-3,5C000400,-0724,0825,12091,029.9,045.5,0.252,755.4,01.16,0.508
2015-10-01 03:09:00,1847E-3,5C000400,-0724,0825,12242,029.9,045.5,0.253,755.4,01.16,0.508
2015-10-01 03:10:00,1926E-3,5C000400,-0724,0824,12233,030.0,045.5,0.252,755.3,01.16,0.508
2015-10-01 03:11:00,1904E-3,5C000400,-0724,0824,12171,030.0,045.5,0.253,755.4,01.16,0.508
2015-10-01 03:12:00,1752E-3,5C000400,-0724,0824,12125,030.0,045.5,0.252,755.5,01.16,0.508
2015-10-01 03:13:00,1921E-3,5C000400,-0724,0825,12130,030.1,045.5,0.253,755.5,01.16,0.508
2015-10-01 03:14:00,1897E-3,5C000400,-0724,0825,12247,030.1,045.5,0.253,755.5,01.16,0.508
2015-10-01 03:15:00,1963E-3,5C000400,-0724,0825,12046,030.2,045.5,0.253,755.4,01.16,0.508
2015-10-01 03:16:00,1891E-3,5C000400,-0724,0825,12354,030.2,045.5,0.252,755.4,01.16,0.508
2015-10-01 03:17:00,1877E-3,5C000400,-0724,0825,12208,030.3,045.5,0.253,755.5,01.16,0.508
2015-10-01 03:18:00,1986E-3,5C000400,-0724,0825,12234,030.3,045.5,0.253,755.4,01.16,0.508
2015-10-01 03:19:00,1949E-3,5C000400,-0724,0824,12300,030.3,045.5,0.252,755.4,01.16,0.508
2015-10-01 03:20:00,1910E-3,5C000400,-0724,0825,12321,030.3,045.5,0.252,755.4,01.16,0.508
2015-10-01 03:21:00,1969E-3,5C000400,-0724,0825,12147,030.4,045.5,0.253,755.3,01.16,0.508
2015-10-01 03:22:00,1874E-3,5C000400,-0724,0825,12237,030.4,045.5,0.252,755.4,01.16,0.508
2015-10-01 03:23:00,1890E-3,5C000400,-0724,0824,12238,030.4,045.5,0.252,755.4,01.16,0.508
2015-10-01 03:24:00,1840E-3,5C000400,-0724,0825,12343,030.4,045.5,0.253,755.3,01.16,0.508
2015-10-01 03:25:00,1947E-3,5C000400,-0724,0825,12170,030.4,045.5,0.252,755.5,01.16,0.508
2015-10-01 03:26:00,1913E-3,5C000400,-0724,0825,12254,030.5,045.5,0.252,755.4,01.16,0.508
2015-10-01 03:27:00,1737E-3,5C000400,-0724,0824,12291,030.5,045.5,0.252,755.3,01.16,0.508
2015-10-01 03:28:00,1817E-3,5C000400,-0724,0824,12365,030.6,045.5,0.252,755.4,01.16,0.508
2015-10-01 03:29:00,1795E-3,5C000400,-0724,0825,12164,030.5,045.5,0.252,755.5,01.16,0.508
2015-10-01 03:30:00,1933E-3,5C000400,-0724,0825,12176,030.5,045.5,0.252,755.4,01.16,0.508
2015-10-01 03:31:00,1856E-3,5C000400,-0724,0825,12242,030.6,045.5,0.252,755.4,01.16,0.508
2015-10-01 03:32:00,1836E-3,5C000400,-0724,0825,12242,030.6,045.5,0.252,755.4,01.16,0.508
2015-10-01 03:33:00,1888E-3,5C000400,-0724,0825,12265,030.6,045.5,0.252,755.6,01.16,0.508
2015-10-01 03:34:00,1934E-3,5C000400,-0724,0825,12091,030.6,045.5,0.252,755.4,01.16,0.508
2015-10-01 03:35:00,1964E-3,5C000400,-0724,0825,12179,030.6,045.5,0.252,755.4,01.16,0.508
2015-10-01 03:36:00,2019E-3,5C000400,-0724,0825,12375,030.6,045.5,0.252,755.4,01.16,0.508
2015-10-01 03:37:00,1918E-3,5C000400,-0724,0824,12290,030.7,045.5,0.252,755.4,01.16,0.508
2015-10-01 03:38:00,1904E-3,5C000400,-0724,0825,12312,030.7,045.5,0.252,755.2,01.16,0.508
2015-10-01 03:39:00,1890E-3,5C000400,-0724,0824,12298,030.7,045.5,0.252,755.4,01.16,0.508
2015-10-01 03:40:00,1927E-3,5C000400,-0724,0826,12240,030.8,045.5,0.252,755.4,01.16,0.508
2015-10-01 03:41:00,1916E-3,5C000400,-0724,0825,12192,030.7,045.5,0.252,755.3,01.16,0.508
2015-10-01 03:42:00,2183E-3,5C000400,-0724,0826,12286,030.7,045.5,0.252,755.3,01.16,0.508
2015-10-01 03:43:00,1911E-3,5C000400,-0724,0826,12131,030.8,045.5,0.252,755.2,01.16,0.508
2015-10-01 03:44:00,1917E-3,5C000400,-0724,0826,12233,030.8,045.5,0.252,755.3,01.16,0.508
2015-10-01 03:45:00,1947E-3,5C000400,-0724,0825,12222,030.8,045.5,0.251,755.3,01.16,0.508
2015-10-01 03:46:00,1922E-3,5C000400,-0724,0825,12188,030.8,045.5,0.252,755.2,01.16,0.508
2015-10-01 03:47:00,1897E-3,5C000400,-0724,0825,12270,030.8,045.5,0.251,755.2,01.16,0.508
2015-10-01 03:48:00,1977E-3,5C000400,-0724,0825,12281,030.8,045.5,0.252,755.2,01.16,0.508
2015-10-01 03:49:00,1913E-3,5C000400,-0724,0824,12232,030.6,045.5,0.252,755.2,01.16,0.508
2015-10-01 03:50:00,1843E-3,5C000400,-0724,0825,12235,030.6,045.5,0.251,755.3,01.16,0.508
2015-10-01 03:51:00,2007E-3,5C000400,-0724,0825,12239,030.4,045.5,0.251,755.3,01.16,0.508
2015-10-01 03:52:00,2018E-3,5C000400,-0724,0824,12169,030.2,045.5,0.252,755.4,01.16,0.508
2015-10-01 03:53:00,1931E-3,5C000400,-0724,0824,12291,030.0,045.5,0.252,755.0,01.17,0.508
2015-10-01 03:54:00,1986E-3,5C000400,-0724,0824,12266,029.8,045.5,0.252,755.3,01.16,0.508
2015-10-01 03:55:00,1898E-3,5C000400,-0724,0825,12294,029.7,045.5,0.252,755.2,01.16,0.508
2015-10-01 03:56:00,1858E-3,5C000400,-0724,0825,12172,029.6,045.5,0.252,755.3,01.16,0.508
2015-10-01 03:57:00,1898E-3,5C000400,-0724,0825,12276,029.7,045.5,0.253,755.2,01.16,0.508
2015-10-01 03:58:00,1899E-3,5C000400,-0724,0824,12143,029.7,045.5,0.253,755.3,01.16,0.508
2015-10-01 03:59:00,2017E-3,5C000400,-0724,0825,12320,029.8,045.5,0.253,755.2,01.16,0.508
2015-10-01 04:00:00,1844E-3,5C000400,-0724,0824,12215,029.8,045.5,0.253,755.2,01.16,0.508
2015-10-01 04:01:00,1865E-3,5C000400,-0724,0825,12216,029.9,045.5,0.253,755.3,01.16,0.508
2015-10-01 04:02:00,1894E-3,5C000400,-0724,0825,12140,029.9,045.5,0.253,755.3,01.16,0.508
2015-10-01 04:03:00,1885E-3,5C000400,-0724,0824,12194,030.0,045.5,0.253,755.3,01.16,0.508
2015-10-01 04:04:00,1971E-3,5C000400,-0724,0825,12257,030.0,045.5,0.253,755.2,01.16,0.508
2015-10-01 04:05:00,1958E-3,5C000400,-0724,0825,12400,030.0,045.5,0.253,755.3,01.16,0.508
2015-10-01 04:06:00,1782E-3,5C000400,-0724,0825,12117,030.1,045.5,0.253,755.2,01.16,0.508
2015-10-01 04:07:00,1887E-3,5C000400,-0724,0825,12319,030.1,045.5,0.253,755.3,01.16,0.508
2015-10-01 04:08:00,1918E-3,5C000400,-0724,0825,12138,030.1,045.5,0.252,755.1,01.16,0.508
2015-10-01 04:09:00,1895E-3,5C000400,-0724,0825,12144,030.2,045.5,0.253,755.2,01.16,0.508
2015-10-01 04:10:00,1845E-3,5C000400,-0724,0825,12197,030.2,045.5,0.253,755.1,01.16,0.508
2015-10-01 04:11:00,1928E-3,5C000400,-0724,0825,12211,030.2,045.5,0.252,755.1,01.16,0.508
2015-10-01 04:12:00,1857E-3,5C000400,-0724,0825,12260,030.3,045.5,0.253,755.0,01.17,0.508
2015-10-01 04:13:00,1845E-3,5C000400,-0724,0825,12221,030.3,045.5,0.253,755.1,01.16,0.508
2015-10-01 04:14:00,1981E-3,5C000400,-0724,0825,12275,030.3,045.5,0.252,755.0,01.17,0.508
2015-10-01 04:15:00,1962E-3,5C000400,-0724,0825,12070,030.4,045.5,0.252,755.1,01.16,0.508
2015-10-01 04:16:00,1842E-3,5C000400,-0724,0825,12170,030.4,045.5,0.253,755.0,01.17,0.508
2015-10-01 04:17:00,1905E-3,5C000400,-0724,0825,12226,030.4,045.5,0.252,755.2,01.16,0.508
2015-10-01 04:18:00,1985E-3,5C000400,-0724,0825,12163,030.4,045.5,0.252,755.0,01.17,0.508
2015-10-01 04:19:00,1913E-3,5C000400,-0724,0825,12153,030.4,045.5,0.253,755.2,01.16,0.508
2015-10-01 04:20:00,1874E-3,5C000400,-0724,0825,12126,030.5,045.5,0.252,755.2,01.16,0.508